BAW50P EGLL-LPPT

Flight info

Callsign BAW50P
Flight time N/A
Altitude 35000
Route GASGU N866 SAM M195 LORKU DCT POZOF DCT BALDA DCT ABUPI DCT XAMAX
Aircraft A21N/M-SDE2E3FGHIRWXY/LB1

Departure

Time 2026-05-06 11:11
Airport London Heathrow Airport (EGLL)

Arrival

Time N/A
Airport Lisbon Humberto Delgado Airport (LPPT)
Time Latitude Longitude Altitude Speed Heading
2026-05-06 10:52 51.46926 -0.48787 91 ft 0 kts 360°
2026-05-06 11:04 51.46924 -0.48787 91 ft 2 kts 360°
2026-05-06 11:04 51.46899 -0.48787 93 ft 2 kts 360°
2026-05-06 11:05 51.46882 -0.48782 93 ft 4 kts 307°
2026-05-06 11:05 51.46876 -0.48748 92 ft 4 kts 270°
2026-05-06 11:05 51.46877 -0.48705 91 ft 4 kts 270°
2026-05-06 11:05 51.46877 -0.48695 91 ft 0 kts 270°
2026-05-06 11:08 51.46873 -0.48724 93 ft 6 kts 245°
2026-05-06 11:08 51.46870 -0.48732 93 ft 0 kts 232°
2026-05-06 11:09 51.46849 -0.48747 91 ft 8 kts 195°
2026-05-06 11:09 51.46784 -0.48749 93 ft 11 kts 177°
2026-05-06 11:09 51.46706 -0.48745 91 ft 12 kts 179°
2026-05-06 11:09 51.46617 -0.48757 92 ft 14 kts 198°
2026-05-06 11:10 51.46520 -0.48783 95 ft 15 kts 159°
2026-05-06 11:10 51.46477 -0.48643 91 ft 1 kts 89°
2026-05-06 11:10 51.46478 -0.48506 92 ft 44 kts 89°
2026-05-06 11:11 51.46482 -0.47530 91 ft 129 kts 89°
2026-05-06 11:11 51.46473 -0.45791 329 ft 173 kts 88°
2026-05-06 11:11 51.46467 -0.43750 899 ft 192 kts 87°
2026-05-06 11:11 51.46455 -0.41574 1592 ft 201 kts 88°
2026-05-06 11:12 51.45963 -0.39384 2161 ft 225 kts 126°
2026-05-06 11:12 51.44707 -0.37653 2591 ft 250 kts 137°
2026-05-06 11:12 51.43583 -0.35455 3228 ft 251 kts 121°
2026-05-06 11:12 51.42480 -0.33432 3731 ft 243 kts 142°
2026-05-06 11:13 51.40924 -0.32392 3941 ft 247 kts 172°
2026-05-06 11:13 51.39228 -0.32627 4105 ft 259 kts 201°
2026-05-06 11:13 51.37640 -0.34161 4614 ft 273 kts 224°
2026-05-06 11:13 51.36238 -0.36246 5416 ft 277 kts 227°
2026-05-06 11:14 51.34827 -0.38370 6262 ft 279 kts 227°
2026-05-06 11:14 51.33400 -0.40471 6796 ft 278 kts 226°
2026-05-06 11:14 51.31945 -0.42534 7580 ft 281 kts 223°
2026-05-06 11:14 51.30501 -0.44649 8434 ft 283 kts 229°
2026-05-06 11:15 51.29151 -0.46948 9281 ft 286 kts 230°
2026-05-06 11:15 51.27920 -0.49426 10041 ft 291 kts 239°
2026-05-06 11:15 51.26823 -0.52243 10485 ft 308 kts 241°
2026-05-06 11:15 51.25690 -0.55285 10802 ft 329 kts 241°
2026-05-06 11:16 51.24487 -0.58519 11134 ft 348 kts 242°
2026-05-06 11:16 51.23231 -0.61876 11770 ft 355 kts 241°
2026-05-06 11:16 51.21956 -0.65266 12545 ft 358 kts 241°
2026-05-06 11:16 51.20670 -0.68679 13353 ft 360 kts 240°
2026-05-06 11:17 51.19375 -0.72106 14082 ft 363 kts 241°
2026-05-06 11:17 51.18069 -0.75565 14747 ft 366 kts 241°
2026-05-06 11:17 51.16750 -0.79052 15393 ft 369 kts 240°
2026-05-06 11:17 51.15419 -0.82565 16076 ft 371 kts 240°
2026-05-06 11:18 51.14077 -0.86102 16740 ft 373 kts 240°
2026-05-06 11:18 51.12729 -0.89654 17368 ft 376 kts 240°
2026-05-06 11:18 51.11365 -0.93235 17970 ft 380 kts 240°
2026-05-06 11:18 51.10008 -0.96795 18524 ft 383 kts 240°
2026-05-06 11:19 51.08618 -1.00437 19057 ft 385 kts 240°
2026-05-06 11:19 51.07223 -1.04088 19580 ft 388 kts 240°
2026-05-06 11:19 51.05816 -1.07768 20088 ft 391 kts 240°
2026-05-06 11:19 51.04398 -1.11468 20606 ft 393 kts 239°
2026-05-06 11:20 51.02972 -1.15185 21098 ft 396 kts 239°
2026-05-06 11:20 51.02018 -1.17670 21409 ft 398 kts 239°
2026-05-06 11:20 51.00570 -1.21434 21924 ft 400 kts 239°
2026-05-06 11:20 50.99113 -1.25217 22421 ft 403 kts 239°
2026-05-06 11:21 50.97644 -1.29025 22922 ft 406 kts 239°
2026-05-06 11:21 50.95495 -1.33908 23598 ft 410 kts 229°
2026-05-06 11:21 50.94084 -1.36021 23864 ft 413 kts 219°
2026-05-06 11:21 50.91715 -1.38643 24273 ft 417 kts 214°
2026-05-06 11:22 50.89303 -1.41105 24682 ft 419 kts 214°
2026-05-06 11:22 50.86839 -1.43616 25068 ft 423 kts 214°
2026-05-06 11:22 50.84363 -1.46161 25435 ft 426 kts 214°
2026-05-06 11:22 50.81874 -1.48732 25826 ft 428 kts 215°
2026-05-06 11:23 50.79373 -1.51322 26203 ft 431 kts 214°
2026-05-06 11:23 50.76856 -1.53928 26573 ft 434 kts 214°
2026-05-06 11:23 50.74322 -1.56547 26931 ft 436 kts 215°
2026-05-06 11:23 50.71771 -1.59181 27298 ft 439 kts 214°
2026-05-06 11:24 50.69242 -1.61790 27637 ft 441 kts 214°
2026-05-06 11:24 50.66666 -1.64440 27990 ft 443 kts 214°
2026-05-06 11:24 50.64076 -1.67106 28330 ft 446 kts 214°
2026-05-06 11:24 50.61469 -1.69785 28624 ft 449 kts 214°
2026-05-06 11:25 50.58845 -1.72476 28951 ft 451 kts 214°
2026-05-06 11:25 50.56208 -1.75177 29282 ft 452 kts 214°
2026-05-06 11:25 50.53568 -1.77876 29694 ft 452 kts 214°
2026-05-06 11:25 50.50937 -1.80563 30116 ft 451 kts 214°
2026-05-06 11:26 50.48303 -1.83253 30470 ft 450 kts 214°
2026-05-06 11:26 50.45710 -1.85895 30814 ft 450 kts 214°
2026-05-06 11:26 50.43081 -1.88571 31117 ft 451 kts 214°
2026-05-06 11:26 50.40445 -1.91247 31435 ft 450 kts 214°
2026-05-06 11:27 50.37812 -1.93917 31791 ft 449 kts 214°
2026-05-06 11:27 50.35192 -1.96573 32134 ft 449 kts 214°
2026-05-06 11:27 50.32567 -1.99230 32446 ft 448 kts 214°
2026-05-06 11:27 50.29946 -2.01879 32757 ft 448 kts 214°
2026-05-06 11:28 50.27330 -2.04518 33057 ft 448 kts 214°
2026-05-06 11:28 50.24740 -2.07129 33347 ft 447 kts 214°
2026-05-06 11:28 50.22112 -2.09736 33630 ft 447 kts 214°
2026-05-06 11:28 50.19469 -2.12305 33900 ft 447 kts 213°
2026-05-06 11:29 50.16826 -2.14866 34126 ft 447 kts 213°
2026-05-06 11:29 50.14180 -2.17434 34299 ft 447 kts 213°
2026-05-06 11:29 50.11532 -2.20007 34470 ft 448 kts 213°
2026-05-06 11:29 50.08885 -2.22575 34668 ft 448 kts 213°
2026-05-06 11:30 50.06239 -2.25140 34872 ft 447 kts 213°
2026-05-06 11:30 50.03593 -2.27702 35018 ft 448 kts 213°
2026-05-06 11:30 50.00986 -2.30222 35033 ft 446 kts 214°
2026-05-06 11:31 49.95721 -2.35302 35010 ft 445 kts 213°
2026-05-06 11:31 49.90196 -2.39711 35000 ft 448 kts 206°
2026-05-06 11:32 49.84503 -2.43662 34995 ft 448 kts 205°
2026-05-06 11:32 49.78805 -2.47616 34993 ft 448 kts 205°
2026-05-06 11:33 49.73158 -2.51538 34993 ft 448 kts 205°
2026-05-06 11:33 49.67453 -2.55495 34992 ft 449 kts 205°
2026-05-06 11:34 49.61745 -2.59453 34992 ft 449 kts 205°
2026-05-06 11:34 49.56023 -2.63406 34989 ft 449 kts 205°
2026-05-06 11:35 49.50348 -2.67310 34998 ft 450 kts 205°
2026-05-06 11:35 49.44643 -2.71231 34996 ft 448 kts 205°
2026-05-06 11:36 49.38944 -2.75131 34996 ft 448 kts 205°
2026-05-06 11:36 49.33224 -2.78939 34987 ft 448 kts 204°
2026-05-06 11:37 49.27460 -2.82623 34984 ft 448 kts 204°
2026-05-06 11:37 49.21722 -2.86312 34983 ft 451 kts 204°
2026-05-06 11:38 49.15943 -2.90029 34984 ft 451 kts 204°
2026-05-06 11:38 49.10159 -2.93729 34985 ft 451 kts 204°
2026-05-06 11:39 49.04361 -2.97422 33960 ft 452 kts 203°
2026-05-06 11:39 49.01468 -2.99258 34392 ft 447 kts 202°
2026-05-06 11:39 48.98602 -3.01077 34759 ft 446 kts 202°
2026-05-06 11:39 48.95724 -3.02903 34927 ft 450 kts 202°
2026-05-06 11:40 48.92813 -3.04742 34990 ft 455 kts 202°
2026-05-06 11:40 48.86876 -3.08501 35013 ft 469 kts 202°
2026-05-06 11:41 48.80811 -3.12340 35011 ft 481 kts 202°
2026-05-06 11:41 48.74523 -3.16290 35010 ft 495 kts 202°
2026-05-06 11:42 48.68081 -3.20331 35009 ft 507 kts 202°
2026-05-06 11:42 48.61586 -3.24396 35002 ft 507 kts 202°
2026-05-06 11:43 48.55059 -3.28476 35001 ft 507 kts 202°
2026-05-06 11:43 48.48529 -3.32536 35001 ft 507 kts 202°
2026-05-06 11:44 48.38779 -3.38576 35002 ft 507 kts 202°
2026-05-06 11:44 48.32244 -3.42599 35002 ft 507 kts 202°
2026-05-06 11:45 48.25701 -3.46627 35002 ft 507 kts 202°
2026-05-06 11:45 48.19171 -3.50659 35001 ft 507 kts 202°
2026-05-06 11:46 48.12631 -3.54680 35001 ft 507 kts 202°
2026-05-06 11:46 48.06122 -3.58639 35002 ft 507 kts 202°
2026-05-06 11:47 47.99590 -3.62625 35001 ft 507 kts 202°
2026-05-06 11:47 47.93051 -3.66607 35001 ft 507 kts 202°
2026-05-06 11:48 47.86505 -3.70580 35001 ft 507 kts 202°
2026-05-06 11:48 47.79963 -3.74532 35001 ft 507 kts 202°
2026-05-06 11:49 47.73460 -3.78451 35002 ft 507 kts 202°
2026-05-06 11:49 47.66900 -3.82384 35001 ft 507 kts 202°
2026-05-06 11:50 47.60352 -3.86316 35001 ft 507 kts 202°
2026-05-06 11:50 47.53798 -3.90241 35001 ft 507 kts 202°
2026-05-06 11:51 47.47283 -3.94127 35001 ft 507 kts 202°
2026-05-06 11:51 47.40726 -3.98033 35001 ft 507 kts 202°
2026-05-06 11:52 47.37002 -4.00240 35002 ft 507 kts 202°
2026-05-06 11:52 47.30444 -4.04111 34997 ft 507 kts 202°
2026-05-06 11:53 47.23917 -4.07967 36157 ft 491 kts 202°
2026-05-06 11:53 47.20878 -4.09747 36392 ft 468 kts 204°
2026-05-06 11:53 47.17816 -4.11554 35592 ft 467 kts 203°
2026-05-06 11:54 47.14832 -4.13319 35195 ft 458 kts 203°
2026-05-06 11:54 47.11891 -4.15046 35039 ft 454 kts 203°
2026-05-06 11:54 47.06056 -4.18464 34998 ft 456 kts 203°
2026-05-06 11:55 47.00155 -4.21917 34999 ft 456 kts 203°
2026-05-06 11:55 46.94257 -4.25363 35008 ft 456 kts 203°
2026-05-06 11:56 46.88364 -4.28795 35003 ft 457 kts 203°
2026-05-06 11:56 46.82446 -4.32232 35004 ft 457 kts 202°
2026-05-06 11:57 46.76558 -4.35622 35013 ft 457 kts 202°
2026-05-06 11:57 46.70642 -4.39043 35012 ft 457 kts 203°
2026-05-06 11:58 46.64724 -4.42455 35012 ft 457 kts 203°
2026-05-06 11:58 46.58808 -4.45878 35018 ft 458 kts 203°
2026-05-06 11:59 46.52924 -4.49249 35016 ft 458 kts 203°
2026-05-06 11:59 46.47003 -4.52637 35019 ft 458 kts 203°
2026-05-06 12:00 46.41073 -4.56034 35026 ft 459 kts 202°
2026-05-06 12:00 46.35143 -4.59414 35018 ft 458 kts 202°
2026-05-06 12:01 46.29210 -4.62800 35017 ft 458 kts 202°
2026-05-06 12:01 46.23266 -4.66162 35027 ft 457 kts 202°
2026-05-06 12:02 46.17359 -4.69501 35025 ft 458 kts 202°
2026-05-06 12:02 46.11408 -4.72856 35017 ft 458 kts 203°
2026-05-06 12:03 46.05499 -4.76185 35019 ft 456 kts 203°
2026-05-06 12:03 45.99554 -4.79529 35025 ft 458 kts 202°
2026-05-06 12:04 45.93612 -4.82856 35027 ft 458 kts 203°
2026-05-06 12:04 45.87966 -4.86022 35031 ft 458 kts 202°
2026-05-06 12:05 45.82023 -4.89315 35035 ft 457 kts 202°
2026-05-06 12:05 45.76091 -4.92604 35034 ft 458 kts 202°
2026-05-06 12:06 45.70164 -4.95900 35036 ft 457 kts 202°
2026-05-06 12:06 45.64266 -4.99172 35036 ft 456 kts 202°
2026-05-06 12:07 45.58349 -5.02445 35039 ft 455 kts 202°
2026-05-06 12:07 45.52433 -5.05717 35038 ft 456 kts 202°
2026-05-06 12:08 45.46521 -5.08977 35035 ft 455 kts 202°
2026-05-06 12:08 45.40608 -5.12219 35038 ft 455 kts 202°
2026-05-06 12:09 45.34739 -5.15437 35038 ft 455 kts 202°
2026-05-06 12:09 45.28829 -5.18669 35037 ft 455 kts 202°
2026-05-06 12:10 45.22925 -5.21889 35035 ft 453 kts 202°
2026-05-06 12:10 45.17068 -5.25074 35039 ft 453 kts 202°
2026-05-06 12:11 45.11174 -5.28274 35041 ft 453 kts 202°
2026-05-06 12:11 45.05332 -5.31467 35036 ft 452 kts 202°
2026-05-06 12:12 44.99460 -5.34646 35041 ft 451 kts 202°
2026-05-06 12:12 44.93582 -5.37827 35038 ft 452 kts 202°
2026-05-06 12:13 44.87713 -5.40990 35038 ft 451 kts 202°
2026-05-06 12:13 44.81854 -5.44140 35039 ft 450 kts 202°
2026-05-06 12:14 44.76030 -5.47261 35041 ft 450 kts 202°
2026-05-06 12:14 44.70175 -5.50394 35044 ft 450 kts 202°
2026-05-06 12:15 44.64318 -5.53514 35044 ft 450 kts 202°
2026-05-06 12:15 44.58510 -5.56813 35044 ft 449 kts 205°
2026-05-06 12:16 44.52791 -5.60366 35044 ft 449 kts 206°
2026-05-06 12:16 44.47098 -5.63868 35039 ft 449 kts 206°
2026-05-06 12:17 44.41379 -5.67379 35044 ft 448 kts 206°
2026-05-06 12:17 44.35655 -5.70892 35044 ft 448 kts 206°
2026-05-06 12:18 44.29983 -5.74373 35046 ft 447 kts 205°
2026-05-06 12:18 44.24290 -5.77862 35046 ft 446 kts 205°
2026-05-06 12:19 44.18605 -5.81333 35046 ft 446 kts 205°
2026-05-06 12:19 44.12952 -5.84780 35047 ft 446 kts 205°
2026-05-06 12:20 44.07270 -5.88232 35042 ft 446 kts 205°
2026-05-06 12:20 44.02551 -5.91098 35047 ft 444 kts 205°
2026-05-06 12:21 43.96883 -5.94532 35051 ft 444 kts 205°
2026-05-06 12:21 43.91207 -5.97961 35051 ft 444 kts 205°
2026-05-06 12:22 43.85522 -6.01388 35044 ft 444 kts 205°
2026-05-06 12:22 43.79897 -6.04775 35050 ft 444 kts 205°
2026-05-06 12:23 43.74236 -6.08182 35051 ft 444 kts 205°
2026-05-06 12:23 43.68582 -6.11573 35049 ft 442 kts 205°
2026-05-06 12:24 43.62970 -6.14927 35049 ft 442 kts 205°
2026-05-06 12:24 43.57328 -6.18297 35053 ft 442 kts 205°
2026-05-06 12:25 43.51689 -6.21665 35052 ft 442 kts 205°
2026-05-06 12:25 43.46048 -6.25026 35045 ft 442 kts 205°
2026-05-06 12:26 43.40403 -6.28372 35045 ft 440 kts 205°
2026-05-06 12:26 43.34801 -6.31690 35043 ft 441 kts 205°
2026-05-06 12:27 43.29165 -6.35022 35032 ft 440 kts 205°
2026-05-06 12:27 43.23529 -6.38350 35020 ft 440 kts 206°
2026-05-06 12:28 43.17893 -6.41673 35025 ft 440 kts 206°
2026-05-06 12:28 43.12305 -6.44968 35021 ft 440 kts 206°
2026-05-06 12:29 43.06672 -6.48297 35013 ft 440 kts 206°
2026-05-06 12:29 43.01044 -6.51596 35012 ft 439 kts 206°
2026-05-06 12:30 42.95459 -6.54858 35016 ft 439 kts 206°
2026-05-06 12:30 42.89833 -6.58137 35013 ft 439 kts 205°
2026-05-06 12:31 42.84202 -6.61415 35012 ft 439 kts 205°
2026-05-06 12:31 42.81384 -6.63052 34346 ft 439 kts 203°
2026-05-06 12:31 42.78574 -6.64682 34708 ft 439 kts 203°
2026-05-06 12:32 42.75754 -6.66317 34898 ft 442 kts 203°
2026-05-06 12:32 42.72939 -6.67947 34976 ft 448 kts 203°
2026-05-06 12:32 42.67122 -6.71311 35012 ft 461 kts 203°
2026-05-06 12:33 42.61132 -6.74769 35010 ft 475 kts 203°
2026-05-06 12:33 42.54968 -6.78321 35011 ft 487 kts 203°
2026-05-06 12:34 42.48637 -6.81959 35010 ft 501 kts 203°